This is the latest recevied weather packets stored in our database for station/object K7SKM. If no packets are shown the sender has not sent any weather packets the latest 1 day(s).
| Time | Temp. | Humidity | Pressure | Rain* | Wind** | Luminosity | Snow |
|---|---|---|---|---|---|---|---|
| 1778043724 | 13.89° C | 80% | 1020.4 hPa | 0 mm | - | 0 W/m² | - |
| 1778043117 | 13.89° C | 79% | 1020.4 hPa | 0 mm | - | 0 W/m² | - |
| 1778042815 | 14.44° C | 79% | 1020.3 hPa | 0 mm | - | 0 W/m² | - |
| 1778042209 | 14.44° C | 79% | 1020.3 hPa | 0 mm | - | 0 W/m² | - |
| 1778041907 | 13.89° C | 78% | 1020.4 hPa | 0 mm | - | 0 W/m² | - |
| 1778041606 | 14.44° C | 78% | 1020.3 hPa | 0 mm | - | 0 W/m² | - |
| 1778041303 | 14.44° C | 77% | 1020.2 hPa | 0 mm | - | 0 W/m² | - |
| 1778040698 | 15° C | 76% | 1020.2 hPa | 0 mm | - | 0 W/m² | - |
| 1778039486 | 15° C | 74% | 1020.1 hPa | 0 mm | - | 0 W/m² | - |
| 1778039183 | 15.56° C | 74% | 1020 hPa | 0 mm | - | 0 W/m² | - |
| 1778038880 | 15.56° C | 73% | 1020 hPa | 0 mm | - | 0 W/m² | - |
| 1778038577 | 15.56° C | 73% | 1020 hPa | 0 mm | - | 0 W/m² | - |
| 1778038274 | 15.56° C | 72% | 1019.9 hPa | 0 mm | - | 0 W/m² | - |
| 1778037972 | 15.56° C | 71% | 1019.8 hPa | 0 mm | - | 0 W/m² | - |
| 1778037668 | 16.11° C | 70% | 1019.9 hPa | 0 mm | - | 1 W/m² | - |
| 1778037062 | 16.11° C | 69% | 1019.6 hPa | 0 mm | - | 4 W/m² | - |
| 1778036761 | 16.67° C | 69% | 1019.6 hPa | 0 mm | - | 6 W/m² | - |
| 1778036457 | 16.67° C | 68% | 1019.7 hPa | 0 mm | - | 8 W/m² | - |
| 1778035850 | 17.22° C | 67% | 1019.6 hPa | 0 mm | - | 13 W/m² | - |
| 1778035548 | 17.22° C | 67% | 1019.6 hPa | 0 mm | - | 17 W/m² | - |
| 1778035244 | 17.22° C | 67% | 1019.7 hPa | 0 mm | - | 19 W/m² | - |
| 1778034940 | 17.22° C | 67% | 1019.7 hPa | 0 mm | - | 21 W/m² | - |
| 1778034638 | 17.22° C | 66% | 1019.5 hPa | 0 mm | - | 22 W/m² | - |
| 1778034335 | 17.22° C | 66% | 1019.8 hPa | 0 mm | - | 24 W/m² | - |
| 1778033730 | 17.78° C | 65% | 1019.7 hPa | 0 mm | - | 27 W/m² | - |
* Rain latest hour (hover to see other rain measurements)
** Current wind speed in m/s (hover to see current wind gust speed)